www.pogodaiklimat.ru

Погода и климат >> Архив погоды >> Сенегал >> Кедугу


ПОГОДА в Кедугу

  • Прогноз погоды в Кедугу
  • Монитор погоды в Кедугу

АРХИВ ПОГОДЫ в Кедугу

Время (UTC), дата Ветер
(напр.,м/с)
 
Видим.   Явления Облачность Т
(С)
Тd
(С)
f
(%)
Тe
(С)
Тes
(С)
Комфортность P
(гПа)
Po
(гПа)
Тmin
(С)
Tmax
(С)
R
(мм)
R24
(мм)
S
(см)
18 17.08 СЗ 2 8000 м слаб. дождь 10/10 450 м
[Sc]
+25.4 +22.5 84 +33 +33 очень
душно
1010.1 991.1 +29.6 9
00 18.08 З 2 10 км зарница 8/4 400 м
[Sc Ac cast Ci sp]
+24.0 +21.8 88 +31 +31 очень
душно
1012.4 993.6
03 18.08 З 3 10 км 9/0
[Ac As]
+23.8 +21.7 88 +30 +30 очень
душно
1011.3 932.4
06 18.08 З 2 10 км 9/0
[Ac trans Cs]
+23.5 +20.8 85 +29 +29 душно 1010.8 991.9 +23.0 9
09 18.08 Ю 3 10 км 8/3 400 м
[Sc Ac trans Ci sp]
+26.0 +21.1 74 +33 +35 очень
душно
1013.0 994.0
12 18.08 ЮЗ 3 10 км 9/8 450 м
[Cu med, cong Ci sp]
+28.4 +21.3 65 +36 +39 очень
душно
1013.2 994.3
15 18.08 З 3 12 км 9/5 480 м
[Cu med, cong Ac trans Ci sp]
+30.3 +21.7 60 +39 +42 очень
душно
1010.2 991.4
18 18.08 С 5 6000 м слаб. дождь 9/9 480 м
[Cu med, cong]
+26.6 +20.8 71 +33 +33 очень
душно
1010.1 991.2 +31.0 0.0
21 18.08 ЮВ 2 6000 м слаб. ливневой дождь, в посл. час гроза 8/4 180 м
[St Ac As]
+22.5 +21.3 93 +30 +30 очень
душно
1011.6 992.6
00 19.08 ЮЗ 2 10 км {гроза, дождь} 9/0 <50 м
[Ac trans Ci sp]
+23.7 +20.7 83 +30 +30 очень
душно
1012.3 993.4 36
06 19.08 ЮЗ 2 10 км 9/4 400 м
[Sc Ac As]
+24.0 +21.8 88 +31 +31 очень
душно
1010.6 991.7 40
09 19.08 З 3 10 км 9/4 450 м
[Cu med, cong Ac trans]
+25.5 +22.9 86 +34 +36 очень
душно
1012.2 993.2
12 19.08 ЮЗ 3 12 км 9/9 450 м
[Cu med, cong]
+28.4 +22.3 70 +37 +39 очень
душно
1012.4 993.5
15 19.08 штиль 0 12 км 8/5 480 м
[Cb calv Ci fib]
+30.5 +23.5 66 +41 +51 опасность
перегрева
1010.0 991.2
18 19.08 штиль 0 10 км 8/4 480 м
[Cb calv As op Ci fib]
+30.5 +24.6 71 +43 +44 опасность
перегрева
1008.7 989.9 +32.6
00 20.08 штиль 0 10 км 6/5 480 м
[Cu med, cong Ac trans]
+26.8 +23.9 84 +37 +37 очень
душно
1011.1 992.3
06 20.08 штиль 0 10 км 6/3 450 м
[Cu hum Ac trans Ci fib]
+24.8 +23.2 91 +33 +33 очень
душно
1010.1 991.3 +24.3
09 20.08 ЮЗ 2 15 км 5/4 480 м
[Cu hum Ci fib]
+27.5 +23.6 79 +37 +41 очень
душно
1011.0 992.3
12 20.08 Ю 3 15 км 9/4 450 м
[Cu Sc Ci sp]
+31.2 +22.9 61 +41 +50 опасность
перегрева
1011.6 992.9
15 20.08 С 2 15 км 8/6 450 м
[Cu med, cong Ci sp]
+32.1 +23.1 59 +42 +48 опасность
перегрева
1008.5 989.8
18 20.08 ЮЗ 2 15 км гроза без осадков 9/4 450 м
[Cb cap Ac trans Ci sp]
+32.4 +23.3 59 +43 +44 опасность
перегрева
1008.1 989.5 +33.6
21 20.08 Ю 3 12 км гроза без осадков 8/8 400 м
[Cb cap]
+29.6 +25.4 78 +43 +43 опасность
перегрева
1009.9 991.2
00 21.08 Ю 4 800 м сильн. гроза, ливневой дождь 10/5 150 м
[Cb cap As op]
+23.0 +22.1 95 +31 +31 очень
душно
1011.1 992.3 65
03 21.08 ЮЗ 4 10 км зарница {гроза, дождь} 10/3 400 м
[Cb calv Ac As]
+23.0 +22.0 94 +31 +31 очень
душно
1010.9 991.7
06 21.08 Ю 2 10 км {гроза, дождь} 8/0
[Ac trans Ci sp]
+23.5 +22.3 93 +31 +31 очень
душно
1009.0 990.3 +23.0 89
09 21.08 ЮЗ 2 10 км 8/3 400 м
[Sc Ac trans]
+27.0 +23.4 81 +37 +39 очень
душно
1010.4 991.7
12 21.08 ЮЗ 3 10 км 9/9 450 м
[Cu med, cong]
+30.6 +22.5 62 +40 +42 очень
душно
1010.7 991.9
15 21.08 ЮЗ 4 10 км гроза без осадков 9/6 450 м
[Cb cap As op]
+32.4 +22.3 55 +41 +43 опасность
перегрева
1007.4 988.8
18 21.08 В 3 1500 м гроза, ливневой дождь 10/4 150 м
[Cb cap As op]
+23.2 +22.2 94 +32 +32 очень
душно
1009.4 990.4 +31.7 29
21 21.08 ЮВ 2 2000 м гроза, ливневой дождь 10/5 150 м
[Cb calv As op]
+23.6 +22.7 95 +31 +31 очень
душно
1010.6 991.7
03 22.08 С 2 10 км {дождь} 9/3 450 м
[Cu hum Ac As Ci sp]
+23.3 +22.6 96 +32 +32 очень
душно
1009.7 991.0
06 22.08 СЗ 2 10 км {дождь} 9/1 450 м
[Sc Ac As Ci sp]
+23.6 +22.4 93 +31 +31 очень
душно
1009.9 990.8 +23.0 71
09 22.08 штиль 0 12 км 9/5 450 м
[Sc Ac As]
+24.4 +23.2 93 +33 +35 очень
душно
1011.5 992.5
12 22.08 ЮЗ 4 15 км 9/8 480 м
[Cu med, cong Ci sp]
+28.6 +22.1 68 +37 +40 очень
душно
1012.1 993.2
15 22.08 Ю 3 10 км 9/6 450 м
[Cu med, cong Ac trans Ci sp]
+30.4 +21.7 60 +39 +42 очень
душно
1009.8 991.0
18 22.08 Ю 2 10 км в посл. час ливневой дождь 8/5 450 м
[Cu med, cong Ac trans]
+28.7 +23.4 73 +39 +39 очень
душно
1009.9 991.0 +33.0 0.0
21 22.08 штиль 0 10 км зарница {дождь} 9/3 400 м
[Sc Ac cuf Ci sp]
+25.7 +21.7 79 +33 +33 очень
душно
1012.7 993.7
00 23.08 З 3 10 км слаб. дождь 9/3 400 м
[Sc Ac As Ci sp]
+25.2 +21.3 79 +32 +32 очень
душно
1013.9 995.1 0.0
06 23.08 СЗ 1 10 км {дождь} 8/0
[Ac trans Ci sp]
+23.8 +22.2 91 +31 +31 очень
душно
1012.8 993.9 +23.3 0.7
09 23.08 ЮЗ 3 12 км 8/4 480 м
[Cu med, cong Ac trans]
+25.0 +22.4 86 +33 +35 очень
душно
1013.4 994.5
12 23.08 ЮЗ 4 15 км 8/5 480 м
[Cu med, cong Ac trans]
+29.4 +22.4 66 +38 +43 очень
душно
1013.5 994.7
15 23.08 ЮЗ 5 15 км 8/5 480 м
[Cu med, cong Ac trans]
+30.2 +23.4 67 +41 +43 опасность
перегрева
1011.3 992.5
18 23.08 ЮЗ 4 8000 м гроза, ливневой дождь 9/5 450 м
[Cb cap Ac As]
+25.0 +23.0 89 +33 +33 очень
душно
1012.3 993.3 +31.8 6
21 23.08 ЮЗ 1 10 км 6/0
[Ac trans Ci sp]
+25.5 +22.3 82 +33 +33 очень
душно
1013.4 994.4
00 24.08 З 2 10 км 5/0
[Ac trans Ci sp]
+24.6 +22.7 89 +32 +32 очень
душно
1010.6 991.8
06 24.08 З 4 10 км 9/0
[Cs]
+24.2 +22.7 91 +32 +32 очень
душно
1013.0 994.0 +24.0 3
09 24.08 ЮЗ 4 15 км 8/3 480 м
[Sc Ac trans Ci fib]
+25.7 +22.5 83 +34 +36 очень
душно
1013.9 995.0
12 24.08 ЮЗ 4 15 км 9/9 480 м
[Cu med, cong]
+29.5 +21.4 62 +37 +39 очень
душно
1013.3 994.5

 

Местоположение метеостанции Кедугу (Сенегал): широта 12.57 долгота -12.21 высота над уровнем моря 167 м.

В архиве по умолчанию представлена погода в Кедугу за последнюю неделю. Архивные данные за месяц целиком и за предыдущие месяцы, начиная с января 2011 года, Вы можете получить, выбрав интересующий диапазон дат из раскрывающегося списка и нажав кнопку "Ввод!".


*Определитесь, кто Вы:
робот инопланетянин человек

Внимание! Время в таблицах - всемирное. Для получения местного времени необходимо прибавить поправку, которая равна 0 ч.

Смотрите также архив погоды в соседних городах и на ближайших метеорологических станциях:

Погода в Кеньебе (Мали) (111 км)
Погода в Кундаре (Гвинея) (141 км)
Погода в Фатото (Гамбия) (195 км)
Погода в Тамбакунде (Сенегал) (208 км)
Погода в Каесе (Мали) (223 км)
Погода в Бассе (Гамбия) (230 км)
Погода в Бафате (Гвинея-Биссау) (271 км)
Погода в Киндиа (Гвинея) (289 км)
Погода в Джорджтауне (Гамбия) (297 км)
Погода в Колде (Сенегал) (300 км)

Пояснения к столбцам:

Ветер - указаны скорость ветра в м/с - средняя за 10 мин, порывы в срок и между сроками (в фигурных скобках) и направление, откуда дует ветер: С - северный, СВ - северо-восточный, В - восточный, ЮВ - юго-восточный, Ю - южный, ЮЗ - юго-западный, З - западный, СЗ - северо-западный.
Видимость - горизонтальная дальность видимости в метрах или километрах. При видимости от 1 до 10 км при отсутствии осадков обычно наблюдается дымка, при ухудшении видимости до 1 км и менее - туман. В сухую погоду видимость может ухудшаться дымом, пылью или мглою.
Явления - указаны атмосферные явления, наблюдавшиеся в срок или в последний час перед сроком; фигурными скобками обозначены явления, наблюдавшиеся между сроками (за 1-3 часа до срока); квадратными скобками обозначены град или гололедные отложения с указанием их диаметра в мм.
Облачность - указаны через наклонную черту общая и нижняя облачность в баллах и высота нижней границы облаков в метрах; квадратными скобками обозначены формы облаков: Ci - перистые, Cs - перисто-слоистые, Cc - перисто-кучевые, Ac - высококучевые, As - высокослоистые, Sc - слоисто-кучевые, Ns - слоисто-дождевые, Cu - кучевые, Cb - кучево-дождевые. Подробнее классификацию облаков см. в Атласе облаков (PDF).
T - Температура воздуха - температура, измеренная на высоте 2 м над землей.
Td - Температура точки росы - температура, при понижении до которой содержащийся в воздухе водяной пар достигнет насыщения.
f - Относительная влажность воздуха - влажноcть воздуха, измеренная на высоте 2 м над землей.
Te - Эффективная температура - температура, которую ощущает одетый по сезону человек в тени. Характеристика душности погоды. При расчете учитывается влияние влажности воздуха и скорости ветра на теплоощущения человека.
Tes - Эффективная температура на солнце - температура, которую ощущает человек, с поправкой на солнечный нагрев. Характеристика знойности погоды. Зависит от высоты солнца над горизонтом, облачности и скорости ветра. Ночью, в пасмурную погоду, а также при ветре 12 м/с и более поправка равна нулю.
P - Атмосферное давление - приведенное к уровню моря атмосферное давление.
Po - Атмосферное давление - измеренное на уровне метеостанции атмосферное давление.
Tmin - Минимальная температура - минимум температуры воздуха на высоте 2 м над землей.
Tmax - Максимальная температура - максимум температуры воздуха на высоте 2 м над землей.
R - Количество осадков - Количество выпавших осадков за период времени, мм. При наведении курсора мыши на число - период времени, за который выпало указанное количество осадков.
R24 - Количество осадков - Количество выпавших осадков за 24 часа, мм.
S - Снежный покров - Высота снежного покрова, см. При наведении курсора мыши на число - состояние снежного покрова и степень покрытия местности в баллах.